TimeCDT,TemperatureF,Dew PointF,Humidity,Sea Level PressureIn,VisibilityMPH,Wind Direction,Wind SpeedMPH,Gust SpeedMPH,PrecipitationIn,Events,Conditions,WindDirDegrees,DateUTC
12:11 AM,70.9,63.0,76,29.96,10.0,East,3.5,-,N/A,,Clear,100,2013-07-21 05:11:00
12:31 AM,68.2,63.0,83,29.96,10.0,Calm,Calm,-,N/A,,Clear,0,2013-07-21 05:31:00
12:52 AM,70.7,62.1,74,29.96,10.0,ESE,3.5,-,N/A,,Clear,120,2013-07-21 05:52:00
1:11 AM,66.4,62.6,88,29.96,10.0,Calm,Calm,-,N/A,,Clear,0,2013-07-21 06:11:00
1:32 AM,66.6,63.5,90,29.96,10.0,Calm,Calm,-,N/A,,Scattered Clouds,0,2013-07-21 06:32:00
1:51 AM,65.8,63.5,92,29.95,10.0,NE,3.5,-,N/A,,Scattered Clouds,50,2013-07-21 06:51:00
2:11 AM,65.7,62.8,90,29.95,10.0,Calm,Calm,-,N/A,,Clear,0,2013-07-21 07:11:00
2:31 AM,65.3,62.8,92,29.94,10.0,Calm,Calm,-,N/A,,Clear,0,2013-07-21 07:31:00
2:51 AM,64.4,62.6,94,29.94,10.0,Calm,Calm,-,N/A,,Clear,0,2013-07-21 07:51:00
3:12 AM,65.7,62.4,89,29.94,10.0,Calm,Calm,-,N/A,,Clear,0,2013-07-21 08:12:00
3:32 AM,63.9,62.1,94,29.94,7.0,SE,3.5,-,N/A,,Clear,140,2013-07-21 08:32:00
3:52 AM,64.4,63.1,96,29.93,10.0,ESE,3.5,-,N/A,,Clear,120,2013-07-21 08:52:00
4:11 AM,65.1,63.1,93,29.93,10.0,ESE,4.6,-,N/A,,Scattered Clouds,110,2013-07-21 09:11:00
4:31 AM,65.5,62.8,91,29.93,10.0,ESE,3.5,-,N/A,,Scattered Clouds,120,2013-07-21 09:31:00
4:51 AM,63.9,62.1,94,29.93,7.0,SE,3.5,-,N/A,,Clear,130,2013-07-21 09:51:00
5:11 AM,62.8,61.5,96,29.93,4.0,Calm,Calm,-,N/A,,Clear,0,2013-07-21 10:11:00
5:31 AM,62.8,61.7,96,29.93,5.0,Calm,Calm,-,N/A,,Clear,0,2013-07-21 10:31:00
5:52 AM,63.5,62.2,96,29.93,7.0,Calm,Calm,-,N/A,,Clear,0,2013-07-21 10:52:00
6:11 AM,63.9,62.6,96,29.94,7.0,Calm,Calm,-,N/A,,Clear,0,2013-07-21 11:11:00
6:32 AM,63.7,62.2,95,29.94,5.0,SE,3.5,-,N/A,,Clear,130,2013-07-21 11:32:00
6:51 AM,64.6,63.5,96,29.94,7.0,SSE,4.6,-,N/A,,Mostly Cloudy,150,2013-07-21 11:51:00
7:12 AM,66.0,63.7,92,29.93,7.0,SSE,4.6,-,N/A,,Mostly Cloudy,150,2013-07-21 12:12:00
7:31 AM,66.4,64.0,92,29.93,7.0,SE,5.8,-,N/A,,Mostly Cloudy,140,2013-07-21 12:31:00
7:52 AM,66.7,64.6,93,29.93,7.0,SE,6.9,-,N/A,,Mostly Cloudy,140,2013-07-21 12:52:00
8:11 AM,67.6,65.1,92,29.93,10.0,SE,5.8,-,N/A,,Mostly Cloudy,140,2013-07-21 13:11:00
8:32 AM,68.5,65.7,90,29.94,10.0,SSE,4.6,-,N/A,,Scattered Clouds,160,2013-07-21 13:32:00
8:52 AM,69.8,66.4,89,29.94,10.0,SE,4.6,-,N/A,,Scattered Clouds,130,2013-07-21 13:52:00
9:12 AM,70.7,66.6,87,29.95,7.0,NE,8.1,-,N/A,,Scattered Clouds,40,2013-07-21 14:12:00
9:32 AM,69.8,66.2,88,29.95,10.0,NE,8.1,-,N/A,,Scattered Clouds,40,2013-07-21 14:32:00
9:52 AM,70.0,65.8,87,29.95,10.0,NE,4.6,-,N/A,,Mostly Cloudy,50,2013-07-21 14:52:00
10:12 AM,70.5,66.0,86,29.95,7.0,ESE,5.8,-,N/A,,Mostly Cloudy,110,2013-07-21 15:12:00
10:33 AM,70.9,66.2,85,29.94,7.0,East,6.9,-,N/A,,Mostly Cloudy,80,2013-07-21 15:33:00
10:52 AM,70.9,66.2,85,29.94,7.0,ESE,6.9,-,N/A,,Mostly Cloudy,120,2013-07-21 15:52:00
11:12 AM,72.0,66.7,84,29.95,10.0,ESE,6.9,-,N/A,,Mostly Cloudy,110,2013-07-21 16:12:00
11:33 AM,73.2,67.1,81,29.95,10.0,SE,6.9,-,N/A,,Mostly Cloudy,130,2013-07-21 16:33:00
11:52 AM,73.6,67.5,81,29.95,10.0,SSE,6.9,-,N/A,,Mostly Cloudy,150,2013-07-21 16:52:00
12:13 PM,73.6,69.1,86,29.95,7.0,SE,4.6,-,N/A,Rain,Light Rain,140,2013-07-21 17:13:00
12:32 PM,73.4,68.5,85,29.95,7.0,NE,4.6,-,N/A,Rain,Light Rain,50,2013-07-21 17:32:00
12:53 PM,72.0,68.7,89,29.94,7.0,NE,9.2,-,N/A,,Mostly Cloudy,50,2013-07-21 17:53:00
1:12 PM,72.1,68.5,88,29.94,7.0,NE,8.1,-,N/A,,Mostly Cloudy,50,2013-07-21 18:12:00
1:33 PM,71.6,67.3,86,29.94,7.0,East,10.4,-,N/A,,Overcast,80,2013-07-21 18:33:00
1:52 PM,70.7,67.3,89,29.93,7.0,East,10.4,-,N/A,,Overcast,80,2013-07-21 18:52:00
2:12 PM,69.6,66.4,89,29.94,7.0,East,8.1,-,N/A,,Overcast,80,2013-07-21 19:12:00
2:33 PM,70.7,66.6,87,29.93,7.0,ENE,6.9,-,N/A,,Mostly Cloudy,70,2013-07-21 19:33:00
2:52 PM,71.1,66.4,85,29.92,7.0,East,9.2,-,N/A,,Mostly Cloudy,80,2013-07-21 19:52:00
3:12 PM,73.0,66.6,80,29.91,10.0,East,11.5,-,N/A,,Mostly Cloudy,90,2013-07-21 20:12:00
3:32 PM,74.7,66.9,77,29.90,10.0,East,8.1,-,N/A,,Mostly Cloudy,80,2013-07-21 20:32:00
3:53 PM,75.0,66.7,75,29.88,10.0,East,6.9,-,N/A,Thunderstorm,Mostly Cloudy,100,2013-07-21 20:53:00
4:12 PM,76.5,66.9,72,29.89,10.0,ESE,8.1,-,N/A,,Overcast,120,2013-07-21 21:12:00
4:33 PM,73.9,61.9,66,29.91,10.0,South,15.0,20.7,N/A,,Mostly Cloudy,170,2013-07-21 21:33:00
4:52 PM,73.6,63.3,70,29.91,4.0,SE,12.7,-,N/A,,Haze,130,2013-07-21 21:52:00
5:12 PM,73.8,66.2,77,29.90,5.0,East,12.7,16.1,N/A,,Haze,90,2013-07-21 22:12:00
5:32 PM,73.6,62.8,69,29.89,10.0,ESE,10.4,-,N/A,,Mostly Cloudy,110,2013-07-21 22:32:00
5:53 PM,74.1,65.1,73,29.89,10.0,ESE,8.1,-,N/A,,Mostly Cloudy,120,2013-07-21 22:53:00
6:12 PM,73.6,64.4,73,29.88,10.0,ESE,6.9,-,N/A,,Clear,120,2013-07-21 23:12:00
6:33 PM,73.4,64.6,74,29.88,10.0,SE,8.1,-,N/A,,Clear,140,2013-07-21 23:33:00
6:52 PM,73.0,64.6,75,29.88,10.0,SE,12.7,-,N/A,,Clear,140,2013-07-21 23:52:00
7:12 PM,72.0,64.2,77,29.89,10.0,SE,10.4,-,N/A,,Clear,130,2013-07-22 00:12:00
7:32 PM,70.5,64.9,82,29.88,10.0,SE,9.2,-,N/A,,Clear,140,2013-07-22 00:32:00
7:53 PM,70.0,64.9,84,29.88,10.0,SSE,6.9,-,N/A,,Clear,150,2013-07-22 00:53:00
8:12 PM,70.0,64.8,83,29.88,10.0,SE,4.6,-,N/A,,Scattered Clouds,130,2013-07-22 01:12:00
8:32 PM,69.3,64.4,84,29.88,10.0,SE,8.1,-,N/A,,Scattered Clouds,140,2013-07-22 01:32:00
8:52 PM,68.4,63.7,85,29.87,10.0,SE,6.9,-,N/A,,Clear,140,2013-07-22 01:52:00
9:12 PM,67.6,63.5,87,29.88,10.0,SE,6.9,-,N/A,,Clear,140,2013-07-22 02:12:00
9:32 PM,66.9,63.5,89,29.89,10.0,SSE,9.2,-,N/A,,Clear,150,2013-07-22 02:32:00
9:52 PM,66.2,63.0,89,29.90,10.0,SE,8.1,-,N/A,,Clear,140,2013-07-22 02:52:00
10:12 PM,65.7,62.4,89,29.92,10.0,SE,4.6,-,N/A,,Clear,140,2013-07-22 03:12:00
10:32 PM,65.5,62.2,89,29.92,10.0,SE,6.9,-,N/A,,Scattered Clouds,140,2013-07-22 03:32:00
10:52 PM,65.3,61.9,89,29.91,10.0,SE,9.2,-,N/A,,Mostly Cloudy,140,2013-07-22 03:52:00
11:12 PM,64.8,61.2,88,29.90,10.0,SE,8.1,-,N/A,,Clear,130,2013-07-22 04:12:00
11:32 PM,64.0,61.0,90,29.90,10.0,SE,6.9,-,N/A,,Clear,140,2013-07-22 04:32:00
11:53 PM,63.5,60.8,91,29.90,10.0,SE,5.8,-,N/A,,Clear,140,2013-07-22 04:53:00